Flag for U.S.A. Weather past 2 weeks in Augusta, Georgia, U.S.A.

Now
70 °F

Sunny.


Feels Like: 71 °F
Forecast: 62 / 85 °F
Wind: No wind

Location: Daniel Field

Current Time: Oct 2, 2014 at 9:40:25 AM

Latest Report: Oct 2, 2014 at 8:53 AM


Visibility: 10 mi

Pressure: 30.11 "Hg

Humidity: 79%

Dew point: 63 °F

Location of AugustaLocation

Historic Weather in Augusta — Graph

°F

Augusta temperature yesterday

Maximum temperature yesterday: 86 °F (at 3:53 PM)
Minimum temperature yesterday: 65 °F (at 6:53 AM)
Average temperature yesterday: 75 °F

Past Weeks' High & Low Weather Summary

 TemperatureHumidityPressure
High88 °F (Sep 21, 3:53 PM)97% (Sep 18, 1:53 AM)30.28 "Hg (Sep 18, 1:53 AM)
Low56 °F (Sep 24, 2:53 AM)37% (Oct 1, 3:53 PM)29.85 "Hg (Sep 30, 4:53 PM)
Average72 °F76%30.05 "Hg
* Reported Sep 17 7:53 AM — Oct 2 7:53 AM, Augusta, Weather by CustomWeather, © 2014

Note: Actual official high and low records may vary slightly from our data, if they occured in-between our weather recording intervals... More about our weather records

Advertising

Augusta weather history for previous 24 hours

 ConditionsComfort  
Time TempWeatherWind HumidityBarometerVisibility
7:53 AM
Oct 2
67 °FClear.No wind87%30.09 "Hg10 mi
6:53 AM67 °FClear.No wind87%30.07 "Hg10 mi
5:53 AM66 °FClear.3 mph93%30.05 "Hg9 mi
4:53 AM67 °FClear.No wind87%30.04 "Hg10 mi
3:53 AM67 °FClear.No wind87%30.03 "Hg10 mi
2:53 AM67 °FClear.6 mph87%30.03 "Hg10 mi
1:53 AM70 °FClear.3 mph79%30.04 "Hg10 mi
12:53 AM71 °FClear.5 mph76%30.03 "Hg10 mi
11:53 PM
Oct 1
72 °FClear.5 mph73%30.03 "Hg10 mi
10:53 PM75 °FClear.3 mph60%30.01 "Hg10 mi
9:53 PM77 °FClear.3 mph54%30.00 "Hg10 mi
8:53 PM79 °FClear.No wind52%29.99 "Hg10 mi
7:53 PM80 °FScattered clouds.5 mph51%29.97 "Hg10 mi
6:53 PM82 °FSunny.5 mph48%29.96 "Hg10 mi
5:53 PM85 °FSunny.No wind40%29.95 "Hg10 mi
4:53 PM86 °FSunny.3 mph39%29.95 "Hg10 mi
3:53 PM86 °FPartly sunny.3 mph37%29.96 "Hg10 mi
2:53 PM85 °FScattered clouds.3 mph40%29.96 "Hg10 mi
1:53 PM83 °FPassing clouds.5 mph44%29.98 "Hg10 mi
12:53 PM83 °FSunny.5 mph48%30.00 "Hg10 mi
11:53 AM81 °FSunny.No wind53%30.01 "Hg10 mi
10:53 AM78 °FSunny.7 mph62%30.01 "Hg10 mi
9:53 AM74 °FSunny.7 mph74%30.01 "Hg10 mi
Weather by CustomWeather, © 2014

See weather overviewHow to use our weather pages